Location: NJAA Observatory
(40.6819°N, 74.8979°W)
Time: 11:11:19
(UTC-05:00)

S-56A Canister/Altair - Visible Passes

Search period start: 26 November 2014 00:00
Search period end: 06 December 2014 00:00
Orbit: 634 x 2502 km, 38.9° (Epoch: 23 November)

Date Brightness Start Highest point End Pass type
(mag) Time Alt. Az. Time Alt. Az. Time Alt. Az.
28 Nov 12.4 17:02:52 10° WSW 17:06:07 11° SW 17:09:35 10° SSW visible
03 Dec 9.8 06:04:55 10° S 06:07:59 18° SSE 06:11:12 10° ESE visible
04 Dec 9.8 05:33:24 10° S 05:35:59 15° SE 05:38:36 10° ESE visible
05 Dec 9.9 05:02:01 10° S 05:03:58 13° SE 05:05:54 10° ESE visible
